Location: Lane
(33.5226°N, 79.8788°W)
Time: 05:04:19
(UTC+00:00)

Tiros 1 - Pass Details

Date: 09 October 2022
Orbit: 629 x 662 km, 48.4° (Epoch: 09 December)

Event Time Altitude Azimuth Distance (km) Brightness Sun altitude
Exits shadow 09:06:43 26° 147° (SSE) 1,279 8.8 -28.4°
Drops below altitude 10° 09:08:47 10° 141° (SE) 2,032 10.0 -28.0°
Sets 09:11:06 0° 138° (SE) 2,933 10.9 -27.5°
